AirNav   Phillips 66 Aviation Fuel
 
 1112 users online  

8D9 Howard Municipal Airport
Howard, South Dakota, USA

GOING TO HOWARD?


FAA INFORMATION EFFECTIVE 08 NOVEMBER 2018

Location

FAA Identifier: 8D9
Lat/Long: 44-01-44.9060N / 097-32-16.2520W
44-01.748433N / 097-32.270867W
44.0291406 / -97.5378478
(estimated)
Elevation: 1582 ft. / 482.2 m (surveyed)
Variation: 07E (1985)
From city: 1 mile N of HOWARD, SD
Time zone: UTC -6 (UTC -5 during Daylight Saving Time)
Zip code: 57349

Airport Operations

Airport use: Open to the public
Activation date: 09/1947
Control tower: no
ARTCC: MINNEAPOLIS CENTER
FSS: HURON FLIGHT SERVICE STATION
NOTAMs facility: HON (NOTAM-D service available)
Attendance: UNATNDD
Wind indicator: lighted
Segmented circle: no
Lights: ACTVT LIRL RY 13/31 - CTAF.
Beacon: white-green (lighted land airport)
Operates sunset to sunrise.

Airport Communications

CTAF: 122.9
WX AWOS-3 at MDS (20 nm E): 118.35 (6054279380)

Nearby radio navigation aids

VOR radial/distance  VOR name  Freq  Var
MHEr051/26.4MITCHELL VOR/DME109.2004E
FSDr296/39.9SIOUX FALLS VORTAC115.0009E

Airport Services

Parking: tiedowns
Airframe service: NONE
Powerplant service: NONE
Bottled oxygen: NONE
Bulk oxygen: NONE

Runway Information

Runway 13/31

Dimensions: 2672 x 150 ft. / 814 x 46 m
Surface: turf, in fair condition
Runway edge lights: low intensity
Gradient: SE
RUNWAY 13  RUNWAY 31
Latitude: 44-02.173000N44-01.837667N
Longitude: 097-32.296000W097-31.902167W
Elevation: 1563.0 ft.1582.0 ft.
Gradient: 0.7% UP
Traffic pattern: leftleft
Obstructions: 14 ft. road, 300 ft. from runway, 21:1 slope to clearnone

Runway 18/36

Dimensions: 1932 x 150 ft. / 589 x 46 m
Surface: turf, in fair condition
Runway edge markings: RWY 18 /36 MKD WITH NEW WHITE/BLACK MARKER CONES.
RUNWAY 18  RUNWAY 36
Latitude: 44-02.148500N44-01.794833N
Longitude: 097-31.887500W097-31.938000W
Elevation: 1583.0 ft.1581.0 ft.
Traffic pattern: leftleft
Obstructions: 28 ft. pline, 737 ft. from runway, 26:1 slope to clear4 ft. fence, 80 ft. from runway, 20:1 slope to clear

Airport Ownership and Management from official FAA records

Ownership: Publicly-owned
Owner: CITY OF HOWARD
PO BOX 705
HOWARD, SD 57349
Phone 605-772-4391
Manager: TIM CLARKE
PO BOX 145
HOWARD, SD 57349
Phone 605-940-9217

Airport Operational Statistics

Aircraft based on the field: 6
Single engine airplanes: 6
    
Aircraft operations: avg 60/month *
92% local general aviation
8% transient general aviation
* for 12-month period ending 08 August 2018

Additional Remarks

RY 13 - 4+ FT FENCE 45 FT R 300 FT FM THR & 125 FT R 240 FT FM THR.
WILDLIFE ON AND INVOF ARPT.
RUNWAYS CLOSED DURING WINTER MONTHS.

Instrument Procedures

There are no published instrument procedures at 8D9.

Some nearby airports with instrument procedures:

KMDS - Madison Municipal Airport (20 nm E)
KMHE - Mitchell Municipal Airport (26 nm SW)
KBKX - Brookings Regional Airport (35 nm NE)
KHON - Huron Regional Airport (37 nm NW)
4X4 - Wessington Springs Airport (43 nm W)
 
Loc | Ops | Rwys | IFR | FBO | Links
Com | Nav | Svcs | Stats | Notes

Mandan Aero Center
 
Area around 8D9 (Howard Municipal Airport)
 
Road maps at: MapQuest Bing Google
 
Aerial photo
WARNING: Photo may not be current or correct
Aerial photo of 8D9 (Howard Municipal Airport)
Photo by Steve Hamilton

Do you have a better or more recent aerial photo of Howard Municipal Airport that you would like to share? If so, please send us your photo.

 
Sectional chart

 
Airport distance calculator
Flying to Howard Municipal Airport? Find the distance to fly.

From to 8D9

Sunrise and sunset
Times for 21-Nov-2018
 Local
(UTC-6)
 Zulu
(UTC)
Morning civil twilight07:0213:02
Sunrise07:3413:34
Sunset16:5822:58
Evening civil twilight17:3023:30

Current date and time
Zulu (UTC)  21-Nov-2018 21:07:29
Local (UTC-6)  21-Nov-2018 15:07:29
 
METAR
KMDS 
20nm E 
212055Z AUTO 12010G19KT 10SM 02/02 A3010 RMK AO2
6E5 
24nm N 
SuperAWOS
211455Z AUTO 00000KT 1/4SM FZFG M02/M03 A3006
KMHE 
26nm SW 
212053Z AUTO 10009KT 10SM CLR 08/01 A3008 RMK AO2 SLP197 T00780006 56008
KBKX 
35nm NE 
212056Z AUTO 12012KT 5SM BR OVC006 00/M01 A3012 RMK AO2 SLP231 T00001011 56012 FZRANO
KHON 
37nm NW 
212055Z AUTO 12009KT 10SM CLR 06/00 A3008 RMK AO2 SLP202 T00610000 56011
TAF
KHON 
37nm NW 
211901Z 2119/2218 13010KT P6SM BKN012 FM212000 12010KT P6SM SCT045 FM220600 14007KT 5SM BR SCT020 FM220900 14007KT 1SM BR OVC010 FM221600 16010KT P6SM FEW030
KFSD 
43nm SE 
212001Z 2120/2218 12011KT P6SM FEW010 FM220300 14009KT 4SM BR SCT015 FM220500 13009KT 1SM BR BKN003 FM221500 15008KT 3SM BR BKN045
NOTAMs
Click for the latest NOTAMs
NOTAMs are issued by the DoD/FAA and will open in a separate window not controlled by AirNav.

 

 
 

Would you like to see your business listed on this page?

 If your business provides an interesting product or service to pilots, flight crews, aircraft, or users of the Howard Municipal Airport, you should consider listing it here.  To start the listing process, click on the button below
 
Add a business
 

Other Pages about Howard Municipal Airport

Update a link
 
Copyright © AirNav, LLC. All rights reserved. Privacy Policy  Contact